Soldotna, AK

7:50 AM AKDT on October 17, 2017 (GMT -0800)
Soldotna

Weather History for PASX - January, 2012

Change the Weather History Date:

Sunday, January 8, 2012

  Actual Average Record
Temperature  
Mean Temperature 10 °F -  
Max Temperature 19 °F 19 °F 39 °F (1955)
Min Temperature 1 °F 3 °F -38 °F (1975)
Degree Days  
Heating Degree Days 55    
Moisture  
Dew Point 9 °F    
Average Humidity 87    
Maximum Humidity 100    
Minimum Humidity 72    
Precipitation  
Precipitation 0.00 in - - ()
Sea Level Pressure  
Sea Level Pressure 29.19 in    
Wind  
Wind Speed 3 mph (South)    
Max Wind Speed 9 mph    
Max Gust Speed -    
Visibility 6 miles    
Events      
Averages and records for this station are not official NWS values.
T = Trace of Precipitation, MM = Missing Value Source: NWS Daily Summary

Daily Weather History Graph

Daily Weather History Graph

Search for Another Location

Airport or City:

Trip Planner

Search our weather history database for the weather conditions in past years. The results will help you decide how hot, cold, wet, or windy it might be!

Date:

Astronomy

Jan. 08, 2012 Rise Set
Actual Time 10:05 AM AKST 4:16 PM AKST
Civil Twilight 9:08 AM AKST 5:13 PM AKST
Nautical Twilight 8:12 AM AKST 6:09 PM AKST
Astronomical Twilight 7:20 AM AKST 7:01 PM AKST
Moon 4:17 PM AKST (1/8) 9:27 AM AKST (1/8)
Length of Visible Light 8h 04m
Length of Day
6h 11m
Full, 100% of the Moon is Illuminated
Jan 8
Full
Jan 8
Full
Jan 16
Last Quarter
Jan 22
New
Jan 30
First Quarter

Hourly Weather History & Observations

Time (AKST) Temp. Windchill Dew Point Humidity Pressure Visibility Wind Dir Wind Speed Gust Speed Precip Events Conditions
12:16 AM 15.8 °F - 12.2 °F 86% 28.88 in 10.0 mi Calm Calm - N/A   Overcast
12:36 AM 15.8 °F - 12.2 °F 86% 28.88 in 10.0 mi Calm Calm - N/A   Overcast
12:56 AM 15.8 °F - 12.2 °F 86% 28.89 in 10.0 mi Calm Calm - N/A   Overcast
1:16 AM 15.8 °F 8.6 °F 12.2 °F 86% 28.90 in 10.0 mi West 4.6 mph - N/A   Overcast
1:36 AM 17.6 °F 8.2 °F 14.0 °F 86% 28.90 in 7.0 mi South 6.9 mph - N/A   Overcast
1:56 AM 17.6 °F 8.2 °F 14.0 °F 86% 28.90 in 4.0 mi South 6.9 mph - N/A   Overcast
2:16 AM 17.6 °F 9.3 °F 14.0 °F 86% 28.90 in 3.0 mi South 5.8 mph - N/A   Overcast
2:36 AM 17.6 °F 10.7 °F 14.0 °F 86% 28.91 in 7.0 mi SSE 4.6 mph - N/A   Overcast
2:56 AM 17.6 °F 12.3 °F 14.0 °F 86% 28.91 in 8.0 mi SSE 3.5 mph - N/A   Overcast
3:36 AM 15.8 °F - 14.0 °F 93% 28.92 in 5.0 mi Calm Calm - N/A   Overcast
3:56 AM 15.8 °F - 14.0 °F 93% 28.93 in 5.0 mi Calm Calm - N/A   Overcast
4:16 AM 15.8 °F 8.6 °F 14.0 °F 93% 28.93 in 9.0 mi ESE 4.6 mph - N/A   Overcast
4:36 AM 15.8 °F - 14.0 °F 93% 28.93 in 10.0 mi Calm Calm - N/A   Overcast
4:56 AM 15.8 °F - 14.0 °F 93% 28.94 in 10.0 mi Calm Calm - N/A   Overcast
5:16 AM 19.4 °F 11.5 °F 17.6 °F 93% 28.95 in 10.0 mi South 5.8 mph - N/A   Overcast
5:36 AM 19.4 °F 11.5 °F 17.6 °F 93% 28.96 in 10.0 mi South 5.8 mph - N/A   Overcast
5:56 AM 17.6 °F 6.4 °F 14.0 °F 86% 28.97 in 10.0 mi SW 9.2 mph - N/A   Overcast
6:16 AM 17.6 °F 7.3 °F 12.2 °F 79% 28.97 in 10.0 mi SW 8.1 mph - N/A   Overcast
6:36 AM 17.6 °F 9.3 °F 10.4 °F 73% 28.98 in 10.0 mi SW 5.8 mph - N/A   Overcast
6:56 AM 15.8 °F 7.2 °F 10.4 °F 79% 28.99 in 10.0 mi SSW 5.8 mph - N/A   Overcast
7:16 AM 15.8 °F 7.2 °F 10.4 °F 79% 29.00 in 10.0 mi SW 5.8 mph - N/A   Overcast
7:36 AM 15.8 °F 6.1 °F 8.6 °F 73% 29.01 in 5.0 mi SSW 6.9 mph - N/A   Overcast
7:56 AM 14.0 °F 2.9 °F 10.4 °F 86% 29.02 in 2.0 mi South 8.1 mph - N/A   Overcast
8:16 AM 14.0 °F 6.5 °F 10.4 °F 86% 29.04 in 3.0 mi SW 4.6 mph - N/A   Overcast
8:36 AM 14.0 °F 8.2 °F 10.4 °F 86% 29.06 in 2.5 mi SSW 3.5 mph - N/A   Overcast
8:56 AM 12.2 °F 1.7 °F 10.4 °F 92% 29.07 in 2.5 mi South 6.9 mph - N/A   Overcast
9:16 AM 12.2 °F 6.1 °F 8.6 °F 85% 29.09 in 3.0 mi South 3.5 mph - N/A   Overcast
9:36 AM 12.2 °F - 8.6 °F 85% 29.11 in 1.8 mi Calm Calm - N/A   Overcast
9:56 AM 12.2 °F 2.9 °F 10.4 °F 92% 29.12 in 0.8 mi ESE 5.8 mph - N/A   Overcast
10:16 AM 12.2 °F 6.1 °F 10.4 °F 92% 29.14 in 1.0 mi ESE 3.5 mph - N/A   Overcast
10:36 AM 12.2 °F 6.1 °F 8.6 °F 85% 29.15 in 1.5 mi SE 3.5 mph - N/A   Overcast
10:56 AM 12.2 °F 6.1 °F 8.6 °F 85% 29.17 in 2.0 mi SSE 3.5 mph - N/A   Overcast
11:16 AM 12.2 °F - 8.6 °F 85% 29.18 in 2.0 mi Calm Calm - N/A   Overcast
11:36 AM 12.2 °F - 8.6 °F 85% 29.20 in 2.0 mi Calm Calm - N/A   Overcast
11:56 AM 12.2 °F - 8.6 °F 85% 29.22 in 2.0 mi Calm Calm - N/A   Overcast
12:16 PM 12.2 °F - 8.6 °F 85% 29.24 in 1.8 mi Calm Calm - N/A   Overcast
12:36 PM 12.2 °F - 8.6 °F 85% 29.25 in 1.8 mi Calm Calm - N/A   Overcast
12:56 PM 12.2 °F 4.3 °F 10.4 °F 92% 29.27 in - West 4.6 mph - N/A   Unknown
1:16 PM 12.2 °F 6.1 °F 8.6 °F 85% 29.29 in 1.8 mi West 3.5 mph - N/A   Overcast
1:36 PM 12.2 °F - 10.4 °F 92% 29.30 in 2.5 mi Calm Calm - N/A   Overcast
1:56 PM 12.2 °F 4.3 °F 10.4 °F 92% 29.33 in 1.8 mi WNW 4.6 mph - N/A   Overcast
2:16 PM 12.2 °F 6.1 °F 10.4 °F 92% 29.34 in 2.0 mi WNW 3.5 mph - N/A   Overcast
2:36 PM 12.2 °F 2.9 °F 10.4 °F 92% 29.36 in 1.5 mi West 5.8 mph - N/A   Overcast
2:56 PM 12.2 °F - 10.4 °F 92% 29.38 in 1.2 mi Calm Calm - N/A   Overcast
3:16 PM 12.2 °F - 10.4 °F 92% 29.39 in 2.5 mi Calm Calm - N/A   Overcast
3:36 PM 12.2 °F - 10.4 °F 92% 29.41 in - Calm Calm - N/A   Unknown
3:56 PM 12.2 °F - 8.6 °F 85% 29.43 in - Calm Calm - N/A   Overcast
4:16 PM 12.2 °F - 10.4 °F 92% 29.45 in 7.0 mi Calm Calm - N/A   Overcast
4:36 PM 10.4 °F - 8.6 °F 92% 29.47 in 7.0 mi Calm Calm - N/A   Overcast
4:56 PM 10.4 °F - 10.4 °F 100% 29.48 in - Calm Calm - N/A   Unknown
5:16 PM 8.6 °F - 6.8 °F 92% 29.49 in 10.0 mi Calm Calm - N/A   Mostly Cloudy
5:36 PM 8.6 °F - 8.6 °F 100% 29.50 in 9.0 mi Calm Calm - N/A   Overcast
5:56 PM 8.6 °F - 5.0 °F 85% 29.52 in 8.0 mi Calm Calm - N/A   Overcast
6:16 PM 6.8 °F - 1.4 °F 79% 29.53 in 9.0 mi Calm Calm - N/A   Overcast
6:36 PM 6.8 °F - 3.2 °F 85% 29.55 in 9.0 mi Calm Calm - N/A   Overcast
6:56 PM 6.8 °F - 3.2 °F 85% 29.55 in 8.0 mi Calm Calm - N/A   Overcast
7:16 PM 5.0 °F -5.6 °F 1.4 °F 85% 29.56 in 9.0 mi East 5.8 mph - N/A   Overcast
7:36 PM 3.2 °F - -0.4 °F 85% 29.57 in 7.0 mi Calm Calm - N/A   Overcast
7:56 PM 1.4 °F -9.9 °F -5.8 °F 72% 29.57 in 5.0 mi East 5.8 mph - N/A   Scattered Clouds
8:16 PM 1.4 °F -6.2 °F -2.2 °F 85% 29.58 in 7.0 mi ENE 3.5 mph - N/A   Clear
8:36 PM 1.4 °F -6.2 °F -2.2 °F 85% 29.59 in 8.0 mi East 3.5 mph - N/A   Clear
8:56 PM -4.0 °F -14.6 °F -13.0 °F 65% 29.60 in 7.0 mi East 4.6 mph - N/A   Clear
9:16 PM -2.2 °F - -2.2 °F 100% 29.61 in 8.0 mi Calm Calm - N/A   Clear
9:36 PM -5.8 °F - -9.4 °F 84% 29.63 in 8.0 mi Calm Calm - N/A   Mostly Cloudy
9:56 PM -5.8 °F - -7.6 °F 92% 29.64 in 8.0 mi Calm Calm - N/A   Overcast
10:16 PM -4.0 °F - -7.6 °F 85% 29.65 in 8.0 mi Calm Calm - N/A   Scattered Clouds
10:36 PM -7.6 °F - -13.0 °F 77% 29.66 in 8.0 mi Calm Calm - N/A   Clear
10:56 PM -7.6 °F -16.5 °F -9.4 °F 92% 29.68 in 8.0 mi East 3.5 mph - N/A   Clear
11:16 PM -7.6 °F - -11.2 °F 84% 29.69 in 8.0 mi Calm Calm - N/A   Clear
11:36 PM -7.6 °F - -13.0 °F 77% 29.70 in 8.0 mi Calm Calm - N/A   Clear
11:56 PM -9.4 °F - -11.2 °F 92% 29.71 in 8.0 mi Calm Calm - N/A   Clear